This demonstration page uses our WeatherBlox Daily Observations layout. Learn more.

Left ArrowRight Arrow

39.08367, -84.50855

Hourly Observations for July 3, 2017

Temp ( °F °C ) Dew Point ( °F °C ) Humidity (%) Winds ( mph kmh ) Pressure ( in mb ) Visibility ( mi km ) Precip ( " mm )
12:53 am 00:53 Clear 66 18.9 64 17.8 93 93 N N/A 30.07 1018 10 16.0934 N/A
1:53 am 01:53 Clear 64 17.8 64 17.8 100 100 N N/A 30.07 1018 7 11.26538 N/A
2:53 am 02:53 Clear with Mist and Fog 64 17.8 64 17.8 100 100 N N/A 30.05 1018 3 4.82802 N/A
3:53 am 03:53 Clear with Mist and Fog 63 17.2 63 17.2 100 100 N N/A 30.05 1018 5 8.0467 N/A
4:09 am 04:09 Clear with Mist and Fog 62 16.7 62 16.7 100 100 N N/A 30.03 1017 1.75 2.816345 N/A
4:20 am 04:20 Clear with Mist and Fog 63 17.2 63 17.2 100 100 N N/A 30.03 1017 3 4.82802 N/A
4:53 am 04:53 Clear with Mist and Fog 63 17.2 63 17.2 100 100 N N/A 30.05 1018 1.5 2.41401 N/A
5:03 am 05:03 Clear with Mist and Fog 63 17.2 63 17.2 100 100 N N/A 30.03 1017 0.75 1.207005 N/A
5:09 am 05:09 Clear with Mist and Fog 63 17.2 63 17.2 100 100 N N/A 30.03 1017 2 3.21868 N/A
5:16 am 05:16 Clear with Mist and Fog 63 17.2 63 17.2 100 100 N N/A 30.03 1017 5 8.0467 N/A
5:23 am 05:23 Clear with Mist and Fog 63 17.2 62 16.7 97 97 N N/A 30.03 1017 1.75 2.816345 N/A
5:31 am 05:31 Clear with Fog 62 16.7 62 16.7 100 100 N N/A 30.03 1017 0.25 0.402335 N/A
5:40 am 05:40 Clear with Mist and Fog 62 16.7 62 16.7 100 100 N N/A 30.03 1017 1 1.60934 N/A
5:49 am 05:49 Clear with Mist and Fog 63 17 63 17 100 100 N N/A 30.03 1017 2.5 4.02335 N/A
5:53 am 05:53 Clear with Mist and Fog 63 17.2 63 17.2 100 100 N N/A 30.06 1018 3 4.82802 N/A
6:15 am 06:15 Clear with Mist and Fog 63 17.2 62 16.7 97 97 N N/A 30.03 1017 1.75 2.816345 N/A
6:27 am 06:27 Sunny with Mist and Fog 62 16.7 62 16.7 100 100 N N/A 30.06 1018 2 3.21868 N/A
6:34 am 06:34 Sunny with Mist and Fog 62 16.7 62 16.7 100 100 N N/A 30.06 1018 1.75 2.816345 N/A
6:46 am 06:46 Sunny with Fog 62 16.7 62 16.7 100 100 N N/A 30.06 1018 0.5 0.80467 N/A
6:51 am 06:51 Sunny with Patchy Fog 63 17 63 17 100 100 N N/A 30.06 1018 5 8.0467 N/A
6:53 am 06:53 Sunny with Patchy Fog 63 17.2 63 17.2 100 100 N N/A 30.08 1019 5 8.0467 N/A
7:53 am 07:53 Sunny with Mist and Fog 68 20 66 18.9 93 93 N N/A 30.08 1019 6 9.65604 N/A
8:53 am 08:53 Sunny 72 22.2 67 19.4 84 84 N N/A 30.09 1019 10 16.0934 N/A
9:53 am 09:53 Sunny 76 24.4 68 20 77 77 N N/A 30.1 1019 10 16.0934 N/A
10:53 am 10:53 Sunny 81 27.2 69 20.6 67 67 VRB 3 6 30.09 1019 10 16.0934 N/A
11:53 am 11:53 Mostly Sunny 84 28.9 65 18.3 53 53 VRB 7 11 30.09 1019 10 16.0934 N/A
12:53 pm 12:53 Sunny 85 29.4 65 18.3 51 51 S 7 11 30.07 1018 10 16.0934 N/A
1:53 pm 13:53 Sunny 86 30 63 17.2 46 46 VRB 3 6 30.05 1018 10 16.0934 N/A
2:53 pm 14:53 Sunny 86 30 65 18.3 49 49 S 6 9 30.04 1017 10 16.0934 N/A
3:53 pm 15:53 Sunny 87 30.6 63 17.2 45 45 N N/A 30.04 1017 10 16.0934 N/A
4:53 pm 16:53 Sunny 87 30.6 65 18.3 48 48 SSW 5 7 30.02 1017 10 16.0934 N/A
5:53 pm 17:53 Partly Cloudy 85 29.4 66 18.9 53 53 SSE 8 13 30.01 1016 10 16.0934 N/A
6:53 pm 18:53 Sunny 82 27.8 65 18.3 56 56 S 10 17 30 1016 10 16.0934 N/A
7:53 pm 19:53 Sunny 79 26.1 68 20 69 69 S 5 7 30.01 1016 10 16.0934 N/A
8:53 pm 20:53 Sunny 78 25.6 67 19.4 69 69 N N/A 30.01 1016 10 16.0934 N/A
9:53 pm 21:53 Clear 74 23.3 68 20 82 82 N N/A 30.03 1017 10 16.0934 N/A
10:53 pm 22:53 Clear 71 21.7 67 19.4 87 87 E 3 6 30.04 1017 10 16.0934 N/A
11:53 pm 23:53 Clear 70 21.1 67 19.4 90 90 N N/A 30.03 1017 10 16.0934 N/A

Powered by AerisWeather